STARLINK-32430 (62207 NORAD) Tracking and Keplerian Element Data

This shows tracking and keplerian element data for the satellite.

Feedback or suggestion? Click here.




ElementValue
Catalog62207
NameSTARLINK-32430
Epoch Orbit1062
Epoch Day34.95305294
Epoch Year2025
RAAN3.966
Inclination43.004
Eccentricity0.0001223
Argument of Perigee284.3588
Mean Anonmoly75.713
Mean Motion15.32107193
Decay Rate-1.255E-05
L11 62207U 24229R 25034.95305294 -.00001255 00000+0 -30948-4 0 9999
L22 62207 43.0040 3.9660 0001223 284.3588 75.7130 15.32107193 10624



Live tracking and technical data element details for STARLINK-32430 (NORAD 62207). STARLINK-32430 can be tracked NOW for your location showing map with azimuth and elevation plus other details from your city location.







IsCatalogInMostPopularTable: catalog: 62207, numindb: 59
Update: records affected: 1



GetName: 62207 STARLINK-32430

Hit Count: updated at: Mon, 19 May 2025 02:11:43 GMT